| time (UTC) | temp F | wind direction | speed knots | gust knots | rain 1hr in | rain 24hr in | rain mn in | humidity % | barometer mb |
| 20260508023025 | 50 | 20 | 0.9 | 3.5 | 0.00 | 1.20 | 1.20 | 95 | 1001.6 |
| 20260508021517 | 49 | 255 | 1.7 | 4.3 | 0.00 | 1.20 | 1.20 | 95 | 1001.6 |
| 20260508020015 | 48 | 221 | 0.0 | 3.5 | 0.00 | 1.20 | 1.20 | 95 | 1001.6 |
| 20260508014532 | 49 | 51 | 0.9 | 2.6 | 0.00 | 1.20 | 1.20 | 94 | 1001.5 |
| 20260508013013 | 49 | 221 | 0.0 | 2.6 | 0.00 | 1.20 | 1.20 | 95 | 1001.3 |
| 20260508011511 | 49 | 194 | 1.7 | 4.3 | 0.00 | 1.20 | 1.20 | 94 | 1001.2 |
| 20260508010016 | 49 | 173 | 0.9 | 4.3 | 0.00 | 1.20 | 1.20 | 94 | 1001.5 |
| 20260508004514 | 49 | 161 | 0.9 | 3.5 | 0.00 | 1.20 | 1.20 | 94 | 1001.4 |
| 20260508003016 | 50 | 126 | 1.7 | 6.1 | 0.00 | 1.20 | 1.20 | 94 | 1001.5 |
| 20260508001503 | 50 | 176 | 0.9 | 3.5 | 0.00 | 1.20 | 1.20 | 94 | 1001.5 |
| 20260508000003 | 50 | 107 | 0.9 | 2.6 | 0.00 | 1.20 | 1.20 | 94 | 1001.7 |
| 20260507234502 | 51 | 139 | 1.7 | 3.5 | 0.00 | 1.20 | 1.20 | 94 | 1002.0 |
| 20260507233002 | 51 | 151 | 0.0 | 4.3 | 0.00 | 1.20 | 1.20 | 94 | 1001.6 |
| 20260507231603 | 51 | 103 | 0.9 | 2.6 | 0.00 | 1.20 | 1.20 | 94 | 1001.8 |
| 20260507230101 | 51 | 119 | 0.9 | 6.1 | 0.00 | 1.20 | 1.20 | 94 | 1001.7 |
| 20260507224616 | 51 | 173 | 2.6 | 7.8 | 0.00 | 1.20 | 1.20 | 94 | 1001.8 |
| 20260507223101 | 51 | 148 | 0.9 | 8.7 | 0.00 | 1.20 | 1.20 | 94 | 1002.0 |
| 20260507221556 | 52 | 98 | 0.9 | 2.6 | 0.00 | 1.20 | 1.20 | 94 | 1002.1 |
| 20260507220057 | 52 | 239 | 2.6 | 9.6 | 0.01 | 1.20 | 1.20 | 94 | 1002.2 |
| 20260507214555 | 52 | 293 | 2.6 | 7.0 | 0.02 | 1.20 | 1.20 | 94 | 1002.3 |
| 20260507213053 | 51 | 188 | 2.6 | 9.6 | 0.05 | 1.20 | 1.20 | 94 | 1002.1 |
| 20260507211611 | 51 | 313 | 0.9 | 5.2 | 0.13 | 1.20 | 1.20 | 94 | 1001.8 |
| 20260507210050 | 51 | 214 | 3.5 | 6.1 | 0.21 | 1.19 | 1.19 | 94 | 1001.6 |
| 20260507204544 | 51 | 151 | 3.5 | 8.7 | 0.31 | 1.17 | 1.17 | 94 | 1002.5 |
| 20260507203044 | 51 | 250 | 2.6 | 5.2 | 0.41 | 1.14 | 1.14 | 93 | 1002.6 |
| 20260507201540 | 51 | 200 | 2.6 | 7.8 | 0.44 | 1.06 | 1.06 | 93 | 1003.2 |
| 20260507200038 | 52 | 148 | 0.9 | 7.8 | 0.46 | 0.98 | 0.98 | 93 | 1003.5 |
| 20260507194539 | 53 | 177 | 2.6 | 12.2 | 0.41 | 0.87 | 0.87 | 93 | 1004.0 |
| 20260507193036 | 53 | 247 | 2.6 | 8.7 | 0.46 | 0.74 | 0.74 | 92 | 1004.2 |
| 20260507191534 | 54 | 162 | 2.6 | 9.6 | 0.44 | 0.62 | 0.62 | 92 | 1004.3 |
| 20260507190036 | 54 | 227 | 2.6 | 9.6 | 0.37 | 0.52 | 0.52 | 92 | 1004.5 |
| 20260507184533 | 55 | 167 | 0.9 | 10.4 | 0.30 | 0.45 | 0.45 | 92 | 1004.4 |
| 20260507183032 | 55 | 253 | 0.9 | 9.6 | 0.12 | 0.27 | 0.27 | 91 | 1004.8 |
| 20260507181531 | 56 | 244 | 2.6 | 14.8 | 0.04 | 0.18 | 0.18 | 90 | 1004.4 |
| 20260507180030 | 57 | 251 | 7.0 | 13.0 | 0.01 | 0.15 | 0.15 | 89 | 1004.2 |
| 20260507174530 | 56 | 151 | 3.5 | 13.0 | 0.01 | 0.15 | 0.15 | 90 | 1004.1 |
| 20260507173030 | 56 | 156 | 3.5 | 8.7 | 0.01 | 0.15 | 0.15 | 90 | 1004.4 |
| 20260507171529 | 57 | 174 | 3.5 | 12.2 | 0.00 | 0.14 | 0.14 | 89 | 1004.8 |
| 20260507170026 | 57 | 149 | 3.5 | 9.6 | 0.00 | 0.14 | 0.14 | 89 | 1004.9 |
| 20260507164523 | 56 | 188 | 3.5 | 10.4 | 0.00 | 0.14 | 0.14 | 89 | 1005.2 |
| 20260507163024 | 57 | 140 | 3.5 | 13.0 | 0.00 | 0.14 | 0.14 | 89 | 1005.4 |
| 20260507161518 | 57 | 217 | 1.7 | 11.3 | 0.00 | 0.14 | 0.14 | 89 | 1006.1 |
| 20260507160020 | 58 | 172 | 4.3 | 15.6 | 0.00 | 0.14 | 0.14 | 88 | 1006.4 |
| 20260507154516 | 58 | 163 | 7.0 | 18.2 | 0.00 | 0.14 | 0.14 | 88 | 1006.7 |
| 20260507153014 | 58 | 234 | 4.3 | 13.0 | 0.00 | 0.14 | 0.14 | 88 | 1007.0 |
| 20260507151512 | 59 | 195 | 4.3 | 15.6 | 0.00 | 0.14 | 0.14 | 88 | 1007.4 |
| 20260507150012 | 58 | 169 | 4.3 | 16.5 | 0.00 | 0.14 | 0.14 | 89 | 1007.5 |
| 20260507144508 | 57 | 192 | 4.3 | 15.6 | 0.00 | 0.14 | 0.14 | 90 | 1007.8 |
| 20260507143006 | 56 | 246 | 4.3 | 16.5 | 0.00 | 0.14 | 0.14 | 90 | 1008.4 |
| 20260507141503 | 56 | 244 | 5.2 | 14.8 | 0.00 | 0.14 | 0.14 | 90 | 1008.7 |
| 20260507140002 | 56 | 142 | 7.0 | 18.2 | 0.00 | 0.14 | 0.14 | 90 | 1008.6 |
| 20260507134502 | 57 | 204 | 3.5 | 14.8 | 0.00 | 0.14 | 0.14 | 90 | 1008.9 |
| 20260507133003 | 57 | 200 | 5.2 | 14.8 | 0.00 | 0.14 | 0.14 | 90 | 1009.1 |
| 20260507131604 | 57 | 179 | 2.6 | 11.3 | 0.00 | 0.14 | 0.14 | 91 | 1009.3 |
| 20260507130059 | 58 | 188 | 4.3 | 9.6 | 0.00 | 0.14 | 0.14 | 92 | 1009.1 |
| 20260507124559 | 57 | 20 | 4.3 | 11.3 | 0.00 | 0.14 | 0.14 | 93 | 1009.1 |
| 20260507123057 | 56 | 249 | 5.2 | 15.6 | 0.01 | 0.14 | 0.14 | 94 | 1009.3 |
| 20260507121549 | 54 | 182 | 2.6 | 9.6 | 0.01 | 0.14 | 0.14 | 94 | 1009.8 |
| 20260507120046 | 53 | 179 | 3.5 | 7.8 | 0.02 | 0.14 | 0.14 | 94 | 1010.6 |
| 20260507114544 | 53 | 209 | 5.2 | 8.7 | 0.02 | 0.14 | 0.14 | 94 | 1011.1 |
| 20260507113043 | 53 | 142 | 4.3 | 10.4 | 0.05 | 0.13 | 0.13 | 94 | 1011.1 |
| 20260507111545 | 53 | 211 | 2.6 | 9.6 | 0.07 | 0.13 | 0.13 | 94 | 1011.5 |
| 20260507110044 | 53 | 184 | 2.6 | 9.6 | 0.06 | 0.13 | 0.13 | 94 | 1011.2 |
| 20260507104539 | 53 | 145 | 0.9 | 7.8 | 0.06 | 0.13 | 0.13 | 94 | 1011.4 |
| 20260507103039 | 54 | 180 | 3.5 | 7.0 | 0.02 | 0.09 | 0.09 | 94 | 1011.7 |
| 20260507101556 | 54 | 217 | 1.7 | 7.8 | 0.01 | 0.06 | 0.06 | 94 | 1012.0 |
| 20260507100037 | 53 | 318 | 1.7 | 6.1 | 0.01 | 0.06 | 0.06 | 94 | 1011.3 |
| 20260507094534 | 53 | 190 | 2.6 | 8.7 | 0.01 | 0.06 | 0.06 | 94 | 1011.9 |
| 20260507093033 | 53 | 227 | 2.6 | 8.7 | 0.01 | 0.06 | 0.06 | 94 | 1012.2 |
| 20260507091549 | 52 | 148 | 0.9 | 6.1 | 0.02 | 0.06 | 0.06 | 94 | 1012.2 |
| 20260507090028 | 52 | 159 | 0.9 | 10.4 | 0.03 | 0.06 | 0.06 | 94 | 1012.3 |
| 20260507084529 | 52 | 140 | 4.3 | 8.7 | 0.06 | 0.06 | 0.06 | 94 | 1012.2 |
| 20260507083026 | 52 | 178 | 2.6 | 9.6 | 0.06 | 0.06 | 0.06 | 94 | 1012.3 |
| 20260507081534 | 52 | 212 | 0.9 | 7.0 | 0.03 | 0.03 | 0.03 | 94 | 1012.6 |
| 20260507080021 | 52 | 214 | 4.3 | 9.6 | 0.02 | 0.02 | 0.02 | 94 | 1012.5 |
| 20260507074520 | 52 | 183 | 3.5 | 7.0 | 0.00 | 0.00 | 0.00 | 94 | 1012.8 |
| 20260507073017 | 52 | 245 | 2.6 | 8.7 | 0.00 | 0.00 | 0.00 | 94 | 1013.1 |
| 20260507071515 | 52 | 194 | 4.3 | 7.8 | 0.00 | 0.00 | 0.00 | 94 | 1013.3 |
| 20260507070014 | 52 | 234 | 1.7 | 7.0 | 0.00 | 0.00 | 0.00 | 93 | 1013.3 |
| 20260507064514 | 52 | 188 | 2.6 | 7.8 | 0.00 | 0.00 | 0.00 | 93 | 1013.4 |
| 20260507063009 | 52 | 212 | 1.7 | 6.1 | 0.00 | 0.00 | 0.00 | 93 | 1013.8 |
| 20260507061520 | 53 | 123 | 2.6 | 7.0 | 0.00 | 0.00 | 0.00 | 93 | 1014.0 |
| 20260507060005 | 53 | 339 | 0.0 | 7.8 | 0.00 | 0.00 | 0.00 | 93 | 1014.1 |
| 20260507054502 | 52 | 128 | 0.9 | 7.8 | 0.00 | 0.00 | 0.00 | 93 | 1014.3 |
| 20260507053002 | 52 | 190 | 2.6 | 8.7 | 0.00 | 0.00 | 0.00 | 93 | 1014.4 |
| 20260507051559 | 52 | 178 | 1.7 | 7.0 | 0.00 | 0.00 | 0.00 | 92 | 1014.7 |
| 20260507044601 | 53 | 180 | 1.7 | 8.7 | 0.00 | 0.00 | 0.00 | 92 | 1015.2 |
| 20260507043051 | 52 | 176 | 0.9 | 3.5 | 0.00 | 0.00 | 0.00 | 92 | 1015.5 |
| 20260507041550 | 52 | 358 | 0.0 | 4.3 | 0.00 | 0.00 | 0.00 | 92 | 1015.7 |
| 20260507040050 | 52 | 64 | 0.9 | 3.5 | 0.00 | 0.00 | 0.00 | 91 | 1015.9 |
| 20260507034548 | 51 | 219 | 0.0 | 4.3 | 0.00 | 0.00 | 0.00 | 91 | 1016.1 |
| 20260507033044 | 51 | 203 | 0.0 | 6.1 | 0.00 | 0.00 | 0.00 | 90 | 1016.2 |
| 20260507031543 | 51 | 245 | 1.7 | 7.0 | 0.00 | 0.00 | 0.00 | 90 | 1016.2 |
| 20260507030042 | 52 | 189 | 2.6 | 8.7 | 0.00 | 0.00 | 0.00 | 89 | 1016.2 |
| 20260507024538 | 54 | 182 | 4.3 | 8.7 | 0.00 | 0.00 | 0.00 | 87 | 1016.4 |